EW4239 Weather Reports


time (UTC)temp
F
wind
direction
speed
knots
gust
knots
rain 1hr
in
rain 24hr
in
rain mn
in
humidity
%
barometer
mb
20260505214545 50 0 0.0 2.6 0.00 0.00 0.00 81 1013.6
20260505213043 50 80 0.0 1.7 0.00 0.00 0.00 81 1013.7
20260505211547 50 23 0.9 4.3 0.00 0.00 0.00 81 1013.6
20260505210047 51 34 0.0 2.6 0.00 0.00 0.00 80 1013.6
20260505204559 51 29 0.0 3.5 0.00 0.00 0.00 80 1013.4
20260505203101 51 34 1.7 3.5 0.00 0.00 0.00 79 1013.5
20260505201549 51 0 0.0 1.7 0.00 0.00 0.00 80 1013.4
20260505200050 51 8 0.0 4.3 0.00 0.00 0.00 81 1013.3
20260505194605 52 31 0.0 1.7 0.00 0.00 0.00 82 1013.1
20260505193050 52 5 0.0 1.7 0.00 0.00 0.00 81 1013.0
20260505191603 52 36 0.9 4.3 0.00 0.00 0.00 80 1012.9
20260505190048 53 18 1.7 3.5 0.00 0.00 0.00 79 1012.9
20260505184549 53 38 0.9 7.0 0.00 0.00 0.00 78 1012.8
20260505183054 53 85 1.7 4.3 0.00 0.00 0.00 77 1012.8
20260505181556 54 8 1.7 6.1 0.00 0.00 0.00 75 1012.6
20260505180056 54 23 2.6 7.8 0.00 0.00 0.00 74 1012.7
20260505174545 54 39 2.6 8.7 0.00 0.00 0.00 74 1012.7
20260505173055 55 28 2.6 10.4 0.00 0.00 0.00 73 1012.7
20260505171554 56 11 3.5 8.7 0.00 0.00 0.00 73 1012.8
20260505170052 56 71 3.5 12.2 0.00 0.00 0.00 71 1012.8
20260505164548 57 39 2.6 7.8 0.00 0.00 0.00 70 1012.8
20260505163048 56 28 2.6 7.8 0.00 0.00 0.00 70 1012.8
20260505161551 56 108 2.6 10.4 0.00 0.00 0.00 70 1012.8
20260505153050 57 72 4.3 9.6 0.00 0.00 0.00 72 1012.9
20260505151548 57 39 4.3 10.4 0.00 0.00 0.00 69 1013.0
20260505150106 58 23 2.6 8.7 0.00 0.00 0.00 72 1012.9
20260505124556 58 0 2.6 8.7 0.00 0.00 0.00 69 1013.6
20260505123053 57 356 5.2 10.4 0.00 0.00 0.00 72 1013.6
20260505121619 57 224 2.6 8.7 0.00 0.00 0.00 76 1013.6
20260505120047 57 55 4.3 10.4 0.00 0.00 0.00 74 1013.5
20260505114544 58 336 2.6 8.7 0.00 0.00 0.00 73 1013.5
20260505113054 57 23 2.6 8.7 0.00 0.00 0.00 74 1013.5
20260505111550 57 344 1.7 8.7 0.00 0.00 0.00 75 1013.7
20260505101551 55 102 1.7 7.8 0.00 0.00 0.00 79 1014.1
20260505100123 55 30 2.6 8.7 0.00 0.00 0.00 82 1014.1
20260505094548 54 6 1.7 6.1 0.00 0.00 0.00 83 1014.2
20260505093044 53 15 0.9 6.1 0.00 0.00 0.00 85 1014.1
20260505091611 52 63 1.7 7.0 0.00 0.00 0.00 85 1014.1
20260505090058 52 31 3.5 8.7 0.00 0.00 0.00 86 1014.1
20260505084549 53 46 4.3 8.7 0.00 0.00 0.00 87 1014.2
20260505083051 52 22 2.6 7.8 0.00 0.00 0.00 90 1014.3
20260505081550 51 14 3.5 9.6 0.00 0.00 0.00 91 1014.2
20260505080050 51 54 2.6 7.0 0.00 0.00 0.00 92 1014.2
20260505074550 50 358 2.6 9.6 0.00 0.00 0.00 93 1014.1
20260505073058 50 7 2.6 5.2 0.00 0.00 0.00 93 1014.1
20260505071547 50 16 0.9 7.0 0.00 0.00 0.00 94 1014.2
20260505070051 50 20 1.7 4.3 0.00 0.00 0.00 95 1014.2
20260505064553 49 18 0.0 4.3 0.00 0.00 0.00 96 1014.2
20260505063050 49 36 0.9 3.5 0.00 0.00 0.00 97 1014.2
20260505061551 48 24 0.0 2.6 0.00 0.00 0.00 97 1014.2
20260505060050 48 25 0.0 0.9 0.00 0.00 0.00 97 1014.2
20260505054617 48 0 0.0 0.9 0.00 0.00 0.00 97 1014.1
20260505053052 48 0 0.0 0.9 0.00 0.00 0.00 97 1014.1
20260505051549 48 0 0.9 2.6 0.00 0.00 0.00 97 1014.0
20260505041601 48 0 0.0 0.9 0.00 0.00 0.00 97 1013.9
20260505040044 48 0 0.0 0.9 0.00 0.00 0.00 97 1013.8
20260505034549 48 0 0.0 3.5 0.00 0.00 0.00 97 1013.7
20260505033047 49 0 0.0 3.5 0.00 0.00 0.00 97 1013.7
20260505031553 48 70 0.0 2.6 0.00 0.00 0.00 97 1013.7
20260505024551 49 0 0.0 0.9 0.00 0.00 0.00 96 1013.9
20260505023050 49 0 0.0 0.9 0.00 0.00 0.00 96 1013.9
20260505021553 49 0 0.0 0.9 0.00 0.00 0.00 96 1014.0
20260505020053 49 0 0.0 0.9 0.00 0.00 0.00 96 1014.1
20260505014551 50 0 0.0 1.7 0.00 0.00 0.00 96 1014.3
20260505013043 50 0 0.0 3.5 0.00 0.00 0.00 96 1014.3
20260505011550 50 0 0.0 0.0 0.00 0.00 0.00 96 1014.3
20260505010106 51 0 0.0 0.9 0.00 0.00 0.00 96 1014.3
20260505004551 51 0 0.0 1.7 0.00 0.00 0.00 96 1014.3
20260505003050 51 32 0.0 2.6 0.00 0.00 0.00 96 1014.4
20260505001546 51 0 0.0 0.9 0.00 0.00 0.00 96 1014.7
20260505000052 51 0 0.0 0.9 0.00 0.00 0.00 97 1014.8
20260504234552 51 101 0.0 0.9 0.00 0.00 0.00 97 1014.9
20260504233053 51 0 0.0 0.9 0.00 0.00 0.00 96 1014.8
20260504231547 51 0 0.0 0.9 0.00 0.00 0.00 96 1014.9
20260504230107 51 0 0.0 1.7 0.00 0.00 0.00 96 1014.5
20260504224606 51 85 0.0 0.9 0.00 0.00 0.00 96 1014.4
20260504223051 51 13 0.0 1.7 0.00 0.00 0.00 96 1014.7
20260504221550 51 0 0.0 2.6 0.00 0.00 0.00 97 1014.7
20260504220100 50 0 0.0 0.0 0.00 0.00 0.00 96 1014.9